RH
2 4 9 11 12 8 5 5 3 3 3 3 6 5 4 18 30 64 87 96 95 86 77 83 76 70 65 52 38 35 30 26 27 26 27 20 24 29 24 21 19 17 18 19
6 11 31 30 22 13 10 9 4 2 2 4 7 9 4 18 19 38 76 97 96 98 91 81 76 68 65 62 50 41 36 26 22 20 16 24 37 34 32 31 24 21 24 25
60 55 76 36 20 19 23 12 7 3 3 10 74 6 12 6 7 13 56 86 94 98 98 92 77 65 54 52 48 44 40 30 22 19 22 44 56 83 87 47 32 30 28 25
83 87 84 74 26 22 42 33 10 6 8 13 100 50 72 63 22 16 45 80 100 100 96 82 72 62 51 44 46 48 48 45 39 22 19 36 49 61 37 28 27 32 30 26
69 45 89 94 21 27 54 92 17 18 11 64 58 95 55 81 75 70 100 94 87 91 76 72 70 69 60 48 43 43 42 41 58 51 63 46 55 36 30 28 27 32 35 28
58 42 76 56 21 15 96 32 32 78 36 50 59 99 47 88 41 100 96 99 80 69 75 64 65 60 65 57 48 45 42 40 45 47 40 92 96 66 38 25 21 26 33 26
69 80 36 16 13 76 81 81 79 100 98 59 100 83 96 76 99 82 97 92 84 65 69 70 68 71 67 63 54 48 41 38 37 35 38 43 64 76 60 30 17 18 20 27
35 15 22 33 50 100 100 95 80 89 89 79 86 65 87 95 99 95 90 78 82 56 47 54 53 58 54 56 60 53 46 42 37 37 39 37 30 34 49 42 14 15 14 18
11 22 60 100 88 91 90 76 69 88 87 83 93 94 84 92 88 98 97 96 83 78 82 88 86 81 66 63 59 59 52 46 43 40 38 33 24 24 43 34 15 16 12 16
48 42 99 99 90 98 87 94 70 88 100 100 74 79 62 44 37 56 51 80 89 89 80 75 71 74 73 63 54 46 41 40 38 38 37 41 38 24 38 45 24 23 29 25
100 100 100 98 100 100 91 62 65 75 82 84 97 99 72 73 67 98 90 62 82 97 81 89 90 77 58 56 48 46 51 62 56 35 60 47 29 28 23 37 36 32 54 58
99 100 95 91 98 99 92 87 81 69 79 100 100 100 98 100 100 100 98 85 89 96 90 89 100 82 70 59 49 59 39 60 88 73 32 25 35 40 61 59 58 56 57 66
96 100 100 100 100 100 100 100 100 99 100 100 100 100 100 100 98 99 99 100 100 97 81 99 95 77 69 63 59 28 24 22 22 20 16 16 24 35 69 83 84 87 85 97
62 100 99 99 99 95 93 100 100 100 100 100 100 100 100 100 100 100 98 98 97 95 90 62 48 34 26 22 23 19 18 19 18 18 17 30 47 52 59 80 92 97 97 96
33 86 90 98 99 100 85 100 100 100 100 100 100 100 100 100 96 98 85 100 80 47 34 30 28 25 19 14 13 14 16 14 17 14 13 34 36 35 48 66 78 91 99 97
65 100 100 100 100 100 100 100 100 100 100 100 100 99 100 99 99 94 67 24 23 29 21 20 17 16 15 12 10 10 9 10 11 15 16 15 21 36 38 38 61 80 99 95
80 92 100 100 100 100 100 100 100 100 100 100 100 95 92 93 91 84 80 64 21 13 12 14 24 28 27 22 20 15 9 9 12 13 16 18 28 31 37 38 48 65 77 91
89 90 100 100 100 100 100 100 100 100 100 99 100 99 95 91 94 69 35 41 20 16 16 16 19 35 63 64 58 42 25 22 38 22 20 41 48 61 57 50 54 50 72 85
89 86 100 100 100 100 100 100 100 100 100 100 100 98 97 96 99 87 46 51 60 74 75 68 64 66 70 61 57 60 55 58 48 51 85 98 91 80 74 90 94 74 100 78
72 88 89 100 96 100 99 92 84 82 84 80 80 85 75 72 71 27 34 48 49 81 83 73 68 78 82 75 71 69 72 68 64 79 96 98 98 100 97 97 84 99 99 79
100 100 100 100 100 95 83 75 60 57 59 75 79 85 76 47 26 29 25 9 11 45 68 25 29 52 75 74 67 65 65 62 66 90 94 98 99 97 97 98 99 96 89 97
98 94 99 100 100 98 84 55 49 48 44 52 61 53 50 36 38 16 11 10 12 13 12 10 11 13 29 46 67 62 62 64 59 62 75 82 91 89 98 98 98 99 100 99
88 95 91 75 58 54 51 47 42 44 44 45 44 40 41 41 35 32 29 29 30 33 33 34 34 29 26 19 18 17 22 28 31 41 52 51 74 84 75 91 97 98 95 97
41 34 35 28 27 25 23 24 28 30 31 36 40 44 49 50 49 48 47 47 42 39 37 34 32 31 31 27 22 17 16 19 18 18 18 20 27 32 46 94 98 94 96 99
31 24 21 22 21 19 16 15 12 14 20 20 30 36 39 40 41 46 49 52 50 46 43 40 35 30 27 22 22 15 13 13 13 18 15 11 12 13 14 13 18 55 95 98
32 23 19 17 16 14 13 12 12 12 16 20 20 27 35 38 39 43 52 67 69 61 54 48 45 46 45 39 36 27 18 17 17 16 16 20 22 16 16 18 18 17 16 24
Wind_Speed
87 83 81 75 58 54 56 58 58 58 55 61 62 63 59 53 52 58 60 63 61 57 51 49 48 46 44 39 40 44 42 39 39 37 33 29 29 37 36 32 32 35 30 29
69 67 52 48 44 42 45 47 48 49 51 52 54 63 64 54 52 54 57 55 58 52 52 48 45 44 41 42 42 45 44 42 38 37 35 34 29 34 34 34 34 37 32 33
43 24 32 33 37 38 37 37 35 37 38 38 39 56 53 52 51 49 50 54 54 53 51 49 47 45 46 43 43 42 40 39 37 36 37 34 34 33 35 32 31 36 36 38
21 19 24 27 30 33 32 27 31 29 32 33 38 45 37 32 37 42 42 46 49 52 53 53 51 50 48 46 40 41 41 40 38 36 36 33 32 32 37 36 32 37 39 40
10 26 24 24 22 29 21 22 23 18 26 31 44 36 31 32 29 35 41 47 50 50 52 54 53 48 45 43 38 38 38 38 39 39 41 37 33 35 36 36 35 37 39 39
25 26 25 23 21 23 17 17 19 19 25 30 30 31 32 33 37 38 46 49 47 51 52 51 49 49 46 41 38 37 38 39 40 41 40 37 34 32 36 39 39 38 38 40
16 23 19 16 17 21 19 19 23 23 24 27 24 34 32 26 34 43 41 50 38 38 42 43 43 40 40 40 39 41 42 42 43 41 40 36 32 30 40 42 41 40 40 41
12 8 3 10 20 20 22 24 27 22 22 20 26 26 36 27 19 41 36 33 38 36 37 38 40 37 39 42 44 44 44 45 46 45 41 40 39 35 39 40 41 42 43 42
5 5 8 9 19 19 19 24 21 17 16 23 23 19 24 33 31 22 24 33 38 39 39 39 41 41 39 42 44 48 48 46 45 46 43 40 38 34 37 41 41 44 44 41
1 6 9 11 18 19 14 20 22 21 22 21 18 21 26 34 40 38 39 41 37 35 34 33 35 42 43 42 42 42 43 42 41 42 42 42 42 38 38 44 43 40 42 40
19 20 13 12 11 11 19 24 27 24 22 20 13 23 32 33 38 24 47 47 48 44 46 38 38 38 39 42 43 42 41 41 42 40 44 46 47 40 41 46 43 38 40 39
22 19 5 2 9 0 9 16 19 25 24 23 12 19 31 36 35 32 31 43 34 38 35 43 38 36 37 37 35 36 39 41 43 40 44 45 46 43 43 43 42 39 39 42
23 16 7 4 8 3 8 13 15 21 17 10 7 12 21 14 15 18 28 38 39 40 45 39 37 36 38 37 32 33 35 38 39 41 43 43 42 43 39 38 39 39 42 47
15 8 4 2 3 3 10 8 13 21 19 10 10 16 8 4 8 15 17 31 17 15 27 25 26 26 27 29 30 32 33 34 37 38 39 39 37 37 38 36 36 37 42 49
14 7 2 4 4 6 8 5 8 19 17 16 11 2 4 2 4 9 5 7 13 16 16 20 22 23 27 28 28 30 30 29 34 36 37 37 39 37 36 34 32 33 42 41
3 24 12 11 13 11 12 6 18 18 18 14 7 0 7 8 2 8 3 4 6 7 11 12 16 19 21 25 27 26 25 25 29 29 30 33 35 36 36 35 32 34 39 40
8 9 15 16 20 26 24 20 17 15 15 11 8 9 14 12 9 9 12 8 8 10 11 13 15 17 17 19 20 20 19 22 23 28 29 30 32 35 35 36 34 38 40 40
12 7 4 5 12 16 14 9 4 3 6 10 9 11 9 10 11 6 5 6 7 10 14 14 16 15 13 12 13 15 18 19 16 19 27 27 32 34 36 35 35 36 38 38
4 8 6 10 14 14 10 5 3 2 5 7 9 9 11 12 11 9 8 7 7 4 6 7 9 11 15 14 15 15 15 17 16 16 25 34 31 31 36 33 38 43 44 41
3 5 5 14 19 10 3 1 3 4 5 7 11 10 9 9 10 13 13 13 12 10 9 9 8 8 11 11 12 12 14 13 11 15 24 22 34 36 43 52 37 39 42 44
18 15 14 12 20 10 6 5 2 3 4 6 7 9 11 10 12 15 17 17 16 15 15 13 12 13 13 12 11 12 11 10 11 18 20 17 25 37 36 39 36 39 41 43
8 10 11 10 9 10 7 5 5 2 2 3 5 7 8 9 12 13 14 14 16 16 15 14 12 12 14 14 14 14 15 14 14 17 15 16 20 25 36 42 41 44 49 51
2 4 5 6 3 5 5 5 5 7 7 9 10 10 11 12 11 11 12 13 13 14 14 15 15 16 16 17 19 19 19 19 20 19 19 18 20 21 26 31 33 49 58 54
5 5 5 5 4 4 4 3 4 5 8 10 11 13 15 17 19 20 20 21 22 22 22 22 23 24 24 24 22 24 25 25 25 25 23 23 24 24 24 25 27 30 29 34
9 4 3 3 4 5 6 5 5 6 9 10 12 14 17 18 19 19 21 22 23 23 23 24 24 25 25 26 26 26 28 30 30 29 29 28 28 27 29 28 32 36 34 28
19 13 10 9 9 9 9 10 12 13 13 14 14 15 18 20 21 22 22 22 24 24 25 24 25 26 26 26 26 26 27 28 29 29 30 33 35 34 33 35 35 35 37 39
Wind_Direction
277 274 270 266 264 263 257 252 246 243 240 245 242 245 240 243 238 235 232 237 240 240 241 240 241 245 248 252 257 262 262 261 260 261 256 255 250 258 261 264 270 272 276 279
277 272 275 266 253 254 256 254 252 246 234 243 242 238 237 235 235 233 227 229 235 236 241 243 243 244 244 245 246 250 254 252 253 255 255 252 252 258 265 271 270 272 275 275
278 295 276 272 249 249 252 251 253 249 233 237 237 236 240 239 239 235 233 230 230 233 235 240 237 237 240 241 245 252 259 259 257 253 250 251 256 261 269 268 266 266 268 271
278 288 277 267 248 246 252 260 253 246 243 224 223 234 224 228 235 235 236 233 226 229 233 238 242 242 242 243 245 251 257 262 263 258 253 252 259 265 261 263 261 261 266 269
276 300 272 263 253 235 237 248 237 233 232 214 215 227 204 224 221 228 217 221 224 225 234 239 242 243 246 247 247 246 252 256 257 258 252 254 256 255 255 260 259 257 262 268
275 281 270 269 237 234 220 213 189 195 208 215 210 222 208 230 225 218 217 212 222 227 230 236 241 245 246 247 248 248 247 251 252 252 261 265 245 254 263 260 257 252 255 260
286 283 269 238 198 193 190 185 196 201 211 210 200 207 210 230 215 221 217 214 215 220 224 229 235 238 239 241 243 246 248 248 250 249 254 259 259 257 261 263 260 255 254 254
275 263 189 168 171 210 201 197 204 199 210 204 195 201 214 206 189 208 220 218 224 238 245 243 244 242 242 245 244 244 248 251 251 251 252 256 256 249 250 257 261 260 259 255
270 188 187 180 176 189 195 197 187 197 194 192 209 221 221 222 233 182 205 214 219 228 230 232 237 238 236 240 245 246 247 249 255 258 255 253 251 245 250 252 253 254 254 255
131 206 210 204 203 194 195 187 197 195 191 202 207 225 226 231 237 248 245 231 228 228 232 227 236 239 238 236 238 239 239 243 245 249 253 255 256 250 247 251 250 248 249 250
4 343 347 211 175 197 192 198 200 205 201 191 212 225 219 224 232 235 234 229 234 238 235 243 243 235 237 237 236 237 240 244 248 249 255 257 257 255 250 251 251 246 246 250
337 15 114 186 182 62 201 203 204 207 212 207 230 194 205 217 221 217 191 222 228 232 234 236 230 239 246 243 244 241 243 245 247 249 250 252 256 258 256 254 249 242 242 243
336 3 148 272 231 280 227 212 210 211 181 223 205 157 149 153 173 204 197 211 223 228 231 237 243 248 255 249 246 245 246 247 245 245 248 250 254 256 257 254 252 245 237 234
345 31 186 241 91 181 231 215 213 192 223 276 204 135 103 142 128 158 197 185 210 222 232 235 243 250 255 253 248 250 251 248 248 248 249 247 249 253 252 252 252 250 244 232
328 351 241 209 225 185 203 157 170 192 196 169 135 123 140 84 121 97 109 188 205 220 229 236 244 251 254 255 251 249 248 251 248 246 243 242 245 246 246 247 248 249 245 240
351 89 128 130 160 184 143 128 189 192 168 158 155 302 263 267 249 199 210 196 234 254 254 258 264 266 266 261 255 255 252 244 243 242 241 239 239 240 246 245 246 242 239 245
178 109 110 107 147 165 188 135 138 162 192 203 221 249 259 266 283 274 261 262 295 296 293 288 281 278 270 263 260 255 246 235 239 238 239 242 245 244 245 246 243 240 243 247
231 231 291 124 160 154 137 127 150 190 230 253 266 258 266 272 277 281 327 341 316 286 281 281 278 284 286 288 290 273 260 243 243 255 244 250 248 246 246 246 246 249 248 247
214 193 131 144 154 141 133 152 146 230 277 287 291 284 277 282 280 284 286 282 288 256 275 287 285 272 264 268 274 277 268 264 273 279 250 253 253 246 246 235 251 244 238 250
200 203 210 191 156 160 153 191 230 248 272 278 282 283 290 291 280 282 265 267 269 273 281 282 279 273 264 268 269 273 272 280 288 274 256 250 246 250 247 241 241 244 249 245
156 158 181 192 198 206 234 207 241 251 261 275 275 266 261 282 280 275 275 276 278 273 271 276 270 266 270 287 302 296 299 303 291 269 269 273 249 246 222 243 245 260 260 251
128 141 161 157 180 201 209 216 233 222 222 259 265 276 274 277 274 278 277 276 274 275 276 269 267 268 270 275 276 280 291 295 294 293 296 282 268 265 230 236 238 241 247 250
202 171 165 161 167 179 213 239 252 270 276 278 278 276 276 276 280 280 279 279 277 276 276 279 283 280 278 272 275 276 282 282 284 287 291 292 285 276 268 269 268 255 255 255
204 232 230 219 230 235 219 240 273 286 287 288 289 290 288 284 283 284 283 286 287 288 288 288 288 287 285 282 275 268 268 271 277 280 280 281 284 286 281 269 273 268 263 262
229 232 263 266 256 267 276 289 301 294 289 289 292 294 296 296 295 293 293 293 292 290 288 286 284 282 281 278 277 273 269 269 267 272 275 275 275 275 279 280 285 281 262 258
235 241 249 265 271 274 274 282 288 286 284 284 285 285 286 288 289 291 291 291 289 288 286 286 286 284 282 282 283 282 276 276 277 275 271 273 278 275 275 275 273 275 277 282